Wetterdaten: Freitag, 10.06.2016
Datum Zeit Auen-Temp. Temp gefhlt Luftfeuchte Luftdruck Regen Wind Richtung Richtung Sonnenschein Taupunkt Windben
10.06.2016 00:00 9,5 C 9,1 C 86 % 1016,8 hPa 0,0 mm 0,0 km/h (0 Bft) S 180 0 min 7,3 C 0,0 km/h (0 Bft)
10.06.2016 00:05 9,5 C 9,0 C 86 % 1016,8 hPa 0,0 mm 0,0 km/h (0 Bft) S-SO 157 0 min 7,3 C 0,0 km/h (0 Bft)
10.06.2016 00:10 9,4 C 9,0 C 86 % 1016,6 hPa 0,0 mm 0,0 km/h (0 Bft) S-SO 157 0 min 7,2 C 0,0 km/h (0 Bft)
10.06.2016 00:15 9,5 C 9,1 C 86 % 1016,6 hPa 0,0 mm 0,0 km/h (0 Bft) O-SO 112 0 min 7,3 C 0,0 km/h (0 Bft)
10.06.2016 00:20 9,4 C 8,9 C 86 % 1016,6 hPa 0,0 mm 0,0 km/h (0 Bft) S 180 0 min 7,2 C 0,0 km/h (0 Bft)
10.06.2016 00:25 9,4 C 9,0 C 86 % 1016,6 hPa 0,0 mm 0,0 km/h (0 Bft) S-SO 157 0 min 7,2 C 0,0 km/h (0 Bft)
10.06.2016 00:30 9,4 C 9,0 C 86 % 1016,4 hPa 0,0 mm 0,0 km/h (0 Bft) SO 135 0 min 7,2 C 0,0 km/h (0 Bft)
10.06.2016 00:35 9,3 C 8,9 C 86 % 1016,4 hPa 0,0 mm 0,0 km/h (0 Bft) SO 135 0 min 7,1 C 0,0 km/h (0 Bft)
10.06.2016 00:40 9,3 C 8,8 C 87 % 1016,4 hPa 0,0 mm 0,0 km/h (0 Bft) O-SO 112 0 min 7,2 C 0,0 km/h (0 Bft)
10.06.2016 00:45 9,2 C 8,8 C 87 % 1016,4 hPa 0,0 mm 0,0 km/h (0 Bft) O-SO 112 0 min 7,2 C 0,0 km/h (0 Bft)
10.06.2016 00:50 9,0 C 8,7 C 87 % 1016,0 hPa 0,0 mm 0,0 km/h (0 Bft) SW 225 0 min 7,0 C 0,0 km/h (0 Bft)
10.06.2016 00:55 9,0 C 8,8 C 87 % 1016,0 hPa 0,0 mm 1,2 km/h (1 Bft) SW 225 0 min 7,0 C 5,1 km/h (1 Bft)
10.06.2016 01:00 9,2 C 9,0 C 87 % 1016,0 hPa 0,0 mm 5,1 km/h (1 Bft) W 270 0 min 7,2 C 10,1 km/h (2 Bft)
10.06.2016 01:05 9,2 C 9,0 C 87 % 1016,0 hPa 0,0 mm 6,3 km/h (2 Bft) S 180 0 min 7,2 C 8,0 km/h (2 Bft)
10.06.2016 01:10 9,2 C 8,9 C 87 % 1015,9 hPa 0,0 mm 3,9 km/h (1 Bft) SW 225 0 min 7,2 C 8,3 km/h (2 Bft)
10.06.2016 01:15 9,1 C 8,9 C 87 % 1015,9 hPa 0,0 mm 2,1 km/h (1 Bft) S 180 0 min 7,1 C 0,0 km/h (0 Bft)
10.06.2016 01:20 8,9 C 8,6 C 87 % 1015,9 hPa 0,0 mm 0,3 km/h (0 Bft) S 180 0 min 6,9 C 0,0 km/h (0 Bft)
10.06.2016 01:25 8,9 C 8,5 C 87 % 1015,9 hPa 0,0 mm 0,0 km/h (0 Bft) S-SO 157 0 min 6,9 C 0,0 km/h (0 Bft)
10.06.2016 01:30 8,8 C 8,4 C 87 % 1016,0 hPa 0,0 mm 0,0 km/h (0 Bft) SO 135 0 min 6,8 C 0,0 km/h (0 Bft)
10.06.2016 01:35 8,7 C 8,2 C 87 % 1016,0 hPa 0,0 mm 0,0 km/h (0 Bft) SW 225 0 min 6,7 C 0,0 km/h (0 Bft)
10.06.2016 01:40 8,6 C 8,0 C 87 % 1016,0 hPa 0,0 mm 0,0 km/h (0 Bft) O 90 0 min 6,6 C 0,0 km/h (0 Bft)
10.06.2016 01:45 8,6 C 8,2 C 87 % 1016,0 hPa 0,0 mm 0,0 km/h (0 Bft) SO 135 0 min 6,6 C 0,0 km/h (0 Bft)
10.06.2016 01:50 8,4 C 7,9 C 87 % 1015,8 hPa 0,0 mm 0,0 km/h (0 Bft) SW 225 0 min 6,4 C 0,0 km/h (0 Bft)
10.06.2016 01:55 8,3 C 7,8 C 87 % 1015,8 hPa 0,0 mm 0,0 km/h (0 Bft) S-SO 157 0 min 6,3 C 0,0 km/h (0 Bft)
10.06.2016 02:00 8,3 C 7,8 C 87 % 1015,8 hPa 0,0 mm 0,0 km/h (0 Bft) W-SW 247 0 min 6,3 C 0,0 km/h (0 Bft)
10.06.2016 02:05 8,3 C 7,8 C 87 % 1015,8 hPa 0,0 mm 0,0 km/h (0 Bft) S-SW 202 0 min 6,3 C 0,0 km/h (0 Bft)
10.06.2016 02:10 8,3 C 7,9 C 87 % 1015,8 hPa 0,0 mm 0,0 km/h (0 Bft) N 360 0 min 6,3 C 0,0 km/h (0 Bft)
10.06.2016 02:15 8,3 C 7,7 C 87 % 1015,8 hPa 0,0 mm 0,0 km/h (0 Bft) SW 225 0 min 6,3 C 0,0 km/h (0 Bft)
10.06.2016 02:20 8,2 C 7,7 C 87 % 1015,8 hPa 0,0 mm 0,0 km/h (0 Bft) O-NO 67 0 min 6,2 C 0,0 km/h (0 Bft)
10.06.2016 02:25 8,1 C 7,8 C 87 % 1015,8 hPa 0,0 mm 0,0 km/h (0 Bft) O-SO 112 0 min 6,1 C 0,0 km/h (0 Bft)
10.06.2016 02:30 8,2 C 7,8 C 88 % 1015,4 hPa 0,0 mm 0,0 km/h (0 Bft) W 270 0 min 6,3 C 0,0 km/h (0 Bft)
10.06.2016 02:33 8,2 C 7,8 C 88 % 1015,4 hPa 0,0 mm 0,0 km/h (0 Bft) S 180 0 min 6,3 C 0,0 km/h (0 Bft)
10.06.2016 02:35 8,2 C 7,8 C 88 % 1015,4 hPa 0,0 mm 0,0 km/h (0 Bft) S 180 0 min 6,3 C 0,0 km/h (0 Bft)
10.06.2016 02:40 8,1 C 7,7 C 88 % 1015,4 hPa 0,0 mm 0,0 km/h (0 Bft) SW 225 0 min 6,2 C 0,0 km/h (0 Bft)
10.06.2016 02:45 8,1 C 7,7 C 88 % 1015,4 hPa 0,0 mm 0,0 km/h (0 Bft) SW 225 0 min 6,2 C 0,0 km/h (0 Bft)
10.06.2016 02:50 8,0 C 7,6 C 88 % 1015,2 hPa 0,0 mm 0,0 km/h (0 Bft) S-SO 157 0 min 6,1 C 0,0 km/h (0 Bft)
10.06.2016 02:55 8,0 C 7,6 C 88 % 1015,2 hPa 0,0 mm 0,3 km/h (0 Bft) S-SW 202 0 min 6,1 C 6,9 km/h (2 Bft)
10.06.2016 03:00 7,9 C 7,6 C 88 % 1015,2 hPa 0,0 mm 0,3 km/h (0 Bft) W-SW 247 0 min 6,0 C 0,0 km/h (0 Bft)
10.06.2016 03:05 7,9 C 7,4 C 88 % 1015,2 hPa 0,0 mm 0,3 km/h (0 Bft) S-SW 202 0 min 6,0 C 0,0 km/h (0 Bft)
10.06.2016 03:10 7,8 C 7,2 C 88 % 1015,3 hPa 0,0 mm 0,0 km/h (0 Bft) SW 225 0 min 5,9 C 0,0 km/h (0 Bft)
10.06.2016 03:15 7,7 C 7,3 C 88 % 1015,3 hPa 0,0 mm 0,0 km/h (0 Bft) SW 225 0 min 5,8 C 0,0 km/h (0 Bft)
10.06.2016 03:20 7,7 C 7,2 C 88 % 1015,3 hPa 0,0 mm 0,0 km/h (0 Bft) S 180 0 min 5,8 C 0,0 km/h (0 Bft)
10.06.2016 03:25 7,7 C 7,2 C 88 % 1015,3 hPa 0,0 mm 0,0 km/h (0 Bft) S 180 0 min 5,8 C 0,0 km/h (0 Bft)
10.06.2016 03:30 7,7 C 7,3 C 88 % 1015,1 hPa 0,0 mm 0,0 km/h (0 Bft) S 180 0 min 5,8 C 0,0 km/h (0 Bft)
10.06.2016 03:35 7,7 C 7,2 C 88 % 1015,1 hPa 0,0 mm 0,0 km/h (0 Bft) SW 225 0 min 5,8 C 0,0 km/h (0 Bft)
10.06.2016 03:40 7,6 C 7,1 C 88 % 1015,1 hPa 0,0 mm 0,0 km/h (0 Bft) SW 225 0 min 5,7 C 0,0 km/h (0 Bft)
10.06.2016 03:45 7,5 C 7,2 C 88 % 1015,1 hPa 0,0 mm 0,0 km/h (0 Bft) S-SW 202 0 min 5,6 C 0,0 km/h (0 Bft)
10.06.2016 03:50 7,5 C 7,0 C 88 % 1015,1 hPa 0,0 mm 0,0 km/h (0 Bft) SW 225 0 min 5,6 C 0,0 km/h (0 Bft)
10.06.2016 03:55 7,4 C 7,0 C 88 % 1015,1 hPa 0,0 mm 0,0 km/h (0 Bft) SW 225 0 min 5,5 C 0,0 km/h (0 Bft)
10.06.2016 04:00 7,4 C 7,1 C 88 % 1015,1 hPa 0,0 mm 0,0 km/h (0 Bft) S 180 0 min 5,5 C 0,0 km/h (0 Bft)
10.06.2016 04:05 7,4 C 7,1 C 88 % 1015,1 hPa 0,0 mm 0,0 km/h (0 Bft) S-SW 202 0 min 5,5 C 0,0 km/h (0 Bft)
10.06.2016 04:10 7,3 C 7,0 C 88 % 1014,9 hPa 0,0 mm 0,0 km/h (0 Bft) S-SW 202 0 min 5,4 C 0,0 km/h (0 Bft)
10.06.2016 04:15 7,3 C 6,9 C 88 % 1014,9 hPa 0,0 mm 0,0 km/h (0 Bft) S 180 0 min 5,4 C 0,0 km/h (0 Bft)
10.06.2016 04:20 7,3 C 6,9 C 88 % 1014,9 hPa 0,0 mm 0,0 km/h (0 Bft) W-SW 247 0 min 5,4 C 0,0 km/h (0 Bft)
10.06.2016 04:25 7,3 C 7,0 C 88 % 1014,9 hPa 0,0 mm 0,0 km/h (0 Bft) SW 225 0 min 5,4 C 0,0 km/h (0 Bft)
10.06.2016 04:30 7,2 C 6,8 C 88 % 1014,8 hPa 0,0 mm 0,0 km/h (0 Bft) S-SW 202 0 min 5,3 C 0,0 km/h (0 Bft)
10.06.2016 04:35 7,2 C 6,8 C 88 % 1014,8 hPa 0,0 mm 0,0 km/h (0 Bft) W-SW 247 0 min 5,3 C 0,0 km/h (0 Bft)
10.06.2016 04:40 7,2 C 6,8 C 88 % 1014,8 hPa 0,0 mm 0,0 km/h (0 Bft) S-SW 202 0 min 5,3 C 0,0 km/h (0 Bft)
10.06.2016 04:45 7,1 C 6,8 C 88 % 1014,8 hPa 0,0 mm 0,0 km/h (0 Bft) SW 225 0 min 5,2 C 0,0 km/h (0 Bft)
10.06.2016 04:50 7,1 C 6,8 C 88 % 1014,7 hPa 0,0 mm 0,0 km/h (0 Bft) S 180 0 min 5,2 C 0,0 km/h (0 Bft)
10.06.2016 04:55 7,1 C 6,7 C 88 % 1014,7 hPa 0,0 mm 0,0 km/h (0 Bft) W-SW 247 0 min 5,2 C 0,0 km/h (0 Bft)
10.06.2016 05:00 7,1 C 6,6 C 88 % 1014,7 hPa 0,0 mm 0,0 km/h (0 Bft) S-SW 202 0 min 5,2 C 0,0 km/h (0 Bft)
10.06.2016 05:05 7,0 C 6,5 C 88 % 1014,7 hPa 0,0 mm 0,0 km/h (0 Bft) S 180 0 min 5,2 C 0,0 km/h (0 Bft)
10.06.2016 05:10 6,9 C 6,4 C 88 % 1014,7 hPa 0,0 mm 0,0 km/h (0 Bft) S-SW 202 0 min 5,1 C 0,0 km/h (0 Bft)
10.06.2016 05:15 6,9 C 6,4 C 88 % 1014,7 hPa 0,0 mm 0,0 km/h (0 Bft) S 180 0 min 5,1 C 0,0 km/h (0 Bft)
10.06.2016 05:20 6,9 C 6,4 C 88 % 1014,7 hPa 0,0 mm 0,0 km/h (0 Bft) S-SW 202 0 min 5,1 C 0,0 km/h (0 Bft)
10.06.2016 05:25 6,9 C 6,5 C 88 % 1014,7 hPa 0,0 mm 0,0 km/h (0 Bft) SW 225 0 min 5,1 C 0,0 km/h (0 Bft)
10.06.2016 05:30 6,9 C 6,6 C 88 % 1014,7 hPa 0,0 mm 0,0 km/h (0 Bft) W-SW 247 0 min 5,1 C 0,0 km/h (0 Bft)
10.06.2016 05:33 6,9 C 6,6 C 88 % 1014,7 hPa 0,0 mm 0,0 km/h (0 Bft) SO 135 0 min 5,1 C 0,0 km/h (0 Bft)
10.06.2016 05:36 6,9 C 6,6 C 88 % 1014,7 hPa 0,0 mm 0,0 km/h (0 Bft) SO 135 0 min 5,1 C 0,0 km/h (0 Bft)
10.06.2016 05:40 7,0 C 6,7 C 88 % 1014,7 hPa 0,0 mm 0,0 km/h (0 Bft) S-SW 202 0 min 5,2 C 0,0 km/h (0 Bft)
10.06.2016 05:45 7,0 C 6,7 C 88 % 1014,7 hPa 0,0 mm 0,0 km/h (0 Bft) S 180 0 min 5,2 C 0,0 km/h (0 Bft)
10.06.2016 05:50 6,9 C 6,6 C 88 % 1014,8 hPa 0,0 mm 0,0 km/h (0 Bft) S 180 0 min 5,1 C 0,0 km/h (0 Bft)
10.06.2016 05:55 7,0 C 6,7 C 88 % 1014,8 hPa 0,0 mm 0,0 km/h (0 Bft) SW 225 0 min 5,2 C 0,0 km/h (0 Bft)
10.06.2016 06:00 7,1 C 7,0 C 88 % 1014,8 hPa 0,0 mm 0,0 km/h (0 Bft) S 180 0 min 5,2 C 0,0 km/h (0 Bft)
10.06.2016 06:05 7,2 C 7,4 C 88 % 1014,8 hPa 0,0 mm 0,0 km/h (0 Bft) S-SW 202 0 min 5,3 C 0,0 km/h (0 Bft)
10.06.2016 06:10 7,8 C 9,0 C 88 % 1014,6 hPa 0,0 mm 0,0 km/h (0 Bft) S-SW 202 0 min 5,9 C 0,0 km/h (0 Bft)
10.06.2016 06:15 8,0 C 9,8 C 88 % 1014,6 hPa 0,0 mm 0,0 km/h (0 Bft) SO 135 0 min 6,1 C 0,0 km/h (0 Bft)
10.06.2016 06:20 8,4 C 10,7 C 88 % 1014,6 hPa 0,0 mm 0,0 km/h (0 Bft) S-SW 202 0 min 6,5 C 0,0 km/h (0 Bft)
10.06.2016 06:25 8,6 C 11,2 C 88 % 1014,6 hPa 0,0 mm 0,0 km/h (0 Bft) S 180 0 min 6,7 C 0,0 km/h (0 Bft)
10.06.2016 06:30 9,0 C 11,9 C 88 % 1014,6 hPa 0,0 mm 0,0 km/h (0 Bft) S 180 5 min 7,1 C 0,0 km/h (0 Bft)
10.06.2016 06:35 9,4 C 12,5 C 88 % 1014,6 hPa 0,0 mm 0,0 km/h (0 Bft) N-NO 22 5 min 7,5 C 0,0 km/h (0 Bft)
10.06.2016 06:40 9,7 C 13,4 C 88 % 1014,6 hPa 0,0 mm 0,0 km/h (0 Bft) S 180 5 min 7,8 C 0,0 km/h (0 Bft)
10.06.2016 06:45 9,9 C 14,0 C 88 % 1014,6 hPa 0,0 mm 0,0 km/h (0 Bft) S 180 5 min 8,0 C 0,0 km/h (0 Bft)
10.06.2016 06:50 10,2 C 14,9 C 88 % 1014,7 hPa 0,0 mm 0,0 km/h (0 Bft) SW 225 5 min 8,3 C 0,0 km/h (0 Bft)
10.06.2016 06:55 10,5 C 15,6 C 88 % 1014,7 hPa 0,0 mm 0,0 km/h (0 Bft) W 270 5 min 8,6 C 0,0 km/h (0 Bft)
10.06.2016 07:00 10,9 C 16,5 C 88 % 1014,7 hPa 0,0 mm 0,0 km/h (0 Bft) O 90 5 min 9,0 C 0,0 km/h (0 Bft)
10.06.2016 07:05 11,1 C 16,9 C 87 % 1014,7 hPa 0,0 mm 0,0 km/h (0 Bft) S 180 5 min 9,0 C 0,0 km/h (0 Bft)
10.06.2016 07:10 11,6 C 16,9 C 87 % 1014,6 hPa 0,0 mm 0,0 km/h (0 Bft) S 180 5 min 9,5 C 0,0 km/h (0 Bft)
10.06.2016 07:15 11,9 C 16,9 C 87 % 1014,6 hPa 0,0 mm 0,0 km/h (0 Bft) S 180 5 min 9,8 C 0,0 km/h (0 Bft)
10.06.2016 07:20 12,5 C 19,9 C 87 % 1014,6 hPa 0,0 mm 0,0 km/h (0 Bft) NO 45 5 min 10,4 C 0,0 km/h (0 Bft)
10.06.2016 07:25 12,7 C 20,5 C 86 % 1014,6 hPa 0,0 mm 0,0 km/h (0 Bft) N-NW 337 5 min 10,4 C 0,0 km/h (0 Bft)
10.06.2016 07:30 13,3 C 21,2 C 85 % 1014,6 hPa 0,0 mm 0,0 km/h (0 Bft) O 90 5 min 10,8 C 0,0 km/h (0 Bft)
10.06.2016 07:35 13,3 C 21,6 C 85 % 1014,6 hPa 0,0 mm 0,0 km/h (0 Bft) S 180 5 min 10,8 C 0,0 km/h (0 Bft)
10.06.2016 07:40 13,6 C 22,6 C 84 % 1014,6 hPa 0,0 mm 0,0 km/h (0 Bft) S 180 5 min 10,9 C 0,0 km/h (0 Bft)
10.06.2016 07:45 13,9 C 23,1 C 83 % 1014,6 hPa 0,0 mm 0,0 km/h (0 Bft) N-NO 22 5 min 11,1 C 0,0 km/h (0 Bft)
10.06.2016 07:50 14,3 C 23,8 C 82 % 1014,4 hPa 0,0 mm 0,0 km/h (0 Bft) S-SO 157 5 min 11,3 C 0,0 km/h (0 Bft)
10.06.2016 07:55 14,3 C 23,9 C 81 % 1014,4 hPa 0,0 mm 0,0 km/h (0 Bft) O-NO 67 5 min 11,1 C 0,0 km/h (0 Bft)
10.06.2016 08:00 14,5 C 24,6 C 79 % 1014,4 hPa 0,0 mm 0,0 km/h (0 Bft) N-NW 337 5 min 10,9 C 0,0 km/h (0 Bft)
10.06.2016 08:05 14,6 C 25,0 C 78 % 1014,4 hPa 0,0 mm 0,0 km/h (0 Bft) SO 135 5 min 10,8 C 0,0 km/h (0 Bft)
10.06.2016 08:10 14,7 C 25,1 C 77 % 1014,7 hPa 0,0 mm 0,0 km/h (0 Bft) S-SO 157 5 min 10,7 C 0,0 km/h (0 Bft)
10.06.2016 08:15 14,8 C 24,9 C 76 % 1014,7 hPa 0,0 mm 0,0 km/h (0 Bft) S-SO 157 5 min 10,6 C 0,0 km/h (0 Bft)
10.06.2016 08:20 15,0 C 25,0 C 75 % 1014,7 hPa 0,0 mm 0,0 km/h (0 Bft) SO 135 5 min 10,6 C 0,0 km/h (0 Bft)
10.06.2016 08:25 15,3 C 24,7 C 75 % 1014,7 hPa 0,0 mm 0,0 km/h (0 Bft) SO 135 5 min 10,9 C 0,0 km/h (0 Bft)
10.06.2016 08:30 16,1 C 25,2 C 74 % 1014,9 hPa 0,0 mm 0,0 km/h (0 Bft) W-SW 247 5 min 11,5 C 0,0 km/h (0 Bft)
10.06.2016 08:35 16,7 C 25,9 C 73 % 1014,9 hPa 0,0 mm 0,0 km/h (0 Bft) O-NO 67 5 min 11,8 C 0,0 km/h (0 Bft)
10.06.2016 08:37 16,7 C 25,9 C 73 % 1014,9 hPa 0,0 mm 0,0 km/h (0 Bft) O-NO 67 2 min 11,8 C 0,0 km/h (0 Bft)
10.06.2016 08:40 16,6 C 26,2 C 71 % 1014,9 hPa 0,0 mm 0,0 km/h (0 Bft) S 180 3 min 11,3 C 0,0 km/h (0 Bft)
10.06.2016 08:45 16,8 C 26,4 C 70 % 1014,9 hPa 0,0 mm 0,0 km/h (0 Bft) S 180 5 min 11,3 C 0,0 km/h (0 Bft)
10.06.2016 08:50 17,0 C 26,4 C 69 % 1015,1 hPa 0,7 mm 0,9 km/h (0 Bft) S-SW 202 5 min 11,3 C 7,2 km/h (2 Bft)
10.06.2016 08:55 17,7 C 25,8 C 66 % 1015,1 hPa 0,0 mm 2,1 km/h (1 Bft) O-SO 112 5 min 11,3 C 4,2 km/h (1 Bft)
10.06.2016 09:00 17,8 C 25,8 C 65 % 1015,1 hPa 0,0 mm 1,8 km/h (1 Bft) SW 225 5 min 11,1 C 0,0 km/h (0 Bft)
10.06.2016 09:05 17,8 C 25,7 C 63 % 1015,1 hPa 0,0 mm 1,2 km/h (1 Bft) W 270 5 min 10,7 C 0,0 km/h (0 Bft)
10.06.2016 09:10 18,8 C 26,4 C 64 % 1015,4 hPa 0,0 mm 0,9 km/h (0 Bft) W-NW 292 5 min 11,8 C 0,0 km/h (0 Bft)
10.06.2016 09:15 18,9 C 26,0 C 64 % 1015,4 hPa 0,0 mm 0,6 km/h (0 Bft) NW 315 5 min 11,9 C 4,8 km/h (1 Bft)
10.06.2016 09:20 18,7 C 25,7 C 64 % 1015,4 hPa 0,0 mm 1,8 km/h (1 Bft) W-NW 292 5 min 11,7 C 6,9 km/h (2 Bft)
10.06.2016 09:25 18,5 C 25,4 C 64 % 1015,4 hPa 0,0 mm 4,2 km/h (1 Bft) W-SW 247 5 min 11,6 C 11,9 km/h (2 Bft)
10.06.2016 09:30 18,2 C 25,4 C 62 % 1015,6 hPa 0,0 mm 3,0 km/h (1 Bft) NW 315 5 min 10,8 C 5,7 km/h (1 Bft)
10.06.2016 09:35 18,5 C 25,2 C 62 % 1015,6 hPa 0,0 mm 3,0 km/h (1 Bft) W-NW 292 5 min 11,1 C 8,0 km/h (2 Bft)
10.06.2016 09:40 18,8 C 25,0 C 61 % 1015,6 hPa 0,0 mm 5,7 km/h (1 Bft) W 270 5 min 11,1 C 9,5 km/h (2 Bft)
10.06.2016 09:45 19,0 C 25,3 C 59 % 1015,6 hPa 0,0 mm 4,5 km/h (1 Bft) S-SW 202 5 min 10,8 C 7,2 km/h (2 Bft)
10.06.2016 09:50 19,2 C 25,1 C 59 % 1015,5 hPa 0,0 mm 5,1 km/h (1 Bft) W 270 5 min 11,0 C 14,9 km/h (3 Bft)
10.06.2016 09:55 19,0 C 24,7 C 59 % 1015,5 hPa 0,0 mm 6,9 km/h (2 Bft) W-SW 247 5 min 10,8 C 10,1 km/h (2 Bft)
10.06.2016 10:00 18,8 C 24,3 C 57 % 1015,5 hPa 0,0 mm 8,6 km/h (2 Bft) NW 315 5 min 10,1 C 16,1 km/h (3 Bft)
10.06.2016 10:05 18,8 C 23,9 C 57 % 1015,5 hPa 0,0 mm 9,2 km/h (2 Bft) W-NW 292 5 min 10,1 C 21,8 km/h (4 Bft)
10.06.2016 10:10 18,5 C 23,9 C 54 % 1015,8 hPa 0,0 mm 8,6 km/h (2 Bft) W-NW 292 5 min 9,0 C 6,0 km/h (2 Bft)
10.06.2016 10:15 18,7 C 24,0 C 56 % 1015,8 hPa 0,0 mm 8,0 km/h (2 Bft) S-SO 157 5 min 9,7 C 9,8 km/h (2 Bft)
10.06.2016 10:20 19,1 C 24,6 C 56 % 1015,8 hPa 0,0 mm 6,3 km/h (2 Bft) NW 315 5 min 10,1 C 4,8 km/h (1 Bft)
10.06.2016 10:25 19,0 C 24,7 C 56 % 1015,8 hPa 0,0 mm 5,7 km/h (1 Bft) W 270 5 min 10,0 C 7,2 km/h (2 Bft)
10.06.2016 10:30 19,0 C 25,0 C 56 % 1015,8 hPa 0,0 mm 6,0 km/h (2 Bft) W-NW 292 5 min 10,0 C 11,3 km/h (2 Bft)
10.06.2016 10:35 19,0 C 24,7 C 55 % 1015,8 hPa 0,0 mm 6,9 km/h (2 Bft) NW 315 5 min 9,8 C 9,2 km/h (2 Bft)
10.06.2016 10:40 19,2 C 24,3 C 56 % 1015,8 hPa 0,0 mm 8,3 km/h (2 Bft) NW 315 5 min 10,2 C 7,7 km/h (2 Bft)
10.06.2016 10:45 19,2 C 24,4 C 55 % 1015,8 hPa 0,0 mm 7,7 km/h (2 Bft) NW 315 5 min 9,9 C 8,9 km/h (2 Bft)
10.06.2016 10:50 19,2 C 24,4 C 53 % 1016,0 hPa 0,0 mm 6,9 km/h (2 Bft) NO 45 5 min 9,4 C 0,0 km/h (0 Bft)
10.06.2016 10:55 19,2 C 24,4 C 53 % 1016,0 hPa 0,0 mm 8,0 km/h (2 Bft) W-NW 292 5 min 9,4 C 12,8 km/h (3 Bft)
10.06.2016 11:00 19,3 C 24,3 C 49 % 1016,0 hPa 0,0 mm 7,2 km/h (2 Bft) N-NO 22 5 min 8,3 C 12,2 km/h (2 Bft)
10.06.2016 11:05 19,0 C 24,3 C 48 % 1016,0 hPa 0,0 mm 7,2 km/h (2 Bft) N-NW 337 5 min 7,7 C 5,1 km/h (1 Bft)
10.06.2016 11:10 19,0 C 24,7 C 49 % 1016,1 hPa 0,0 mm 5,1 km/h (1 Bft) O-NO 67 5 min 8,0 C 0,0 km/h (0 Bft)
10.06.2016 11:15 19,5 C 25,4 C 50 % 1016,1 hPa 0,0 mm 2,7 km/h (1 Bft) W 270 5 min 8,8 C 6,6 km/h (2 Bft)
10.06.2016 11:20 20,1 C 25,9 C 52 % 1016,1 hPa 0,0 mm 3,3 km/h (1 Bft) SO 135 5 min 9,9 C 9,2 km/h (2 Bft)
10.06.2016 11:25 20,1 C 25,8 C 51 % 1016,1 hPa 0,0 mm 4,8 km/h (1 Bft) NW 315 5 min 9,6 C 10,1 km/h (2 Bft)
10.06.2016 11:30 19,9 C 25,3 C 52 % 1016,0 hPa 0,0 mm 7,7 km/h (2 Bft) W-NW 292 5 min 9,7 C 12,8 km/h (3 Bft)
10.06.2016 11:35 19,8 C 25,0 C 51 % 1016,0 hPa 0,0 mm 7,2 km/h (2 Bft) SW 225 5 min 9,4 C 5,7 km/h (1 Bft)
10.06.2016 11:38 19,4 C 25,5 C 49 % 1016,0 hPa 0,0 mm 3,9 km/h (1 Bft) N-NW 337 3 min 8,4 C 6,3 km/h (2 Bft)
10.06.2016 11:40 19,4 C 25,5 C 49 % 1016,0 hPa 0,0 mm 3,9 km/h (1 Bft) N-NW 337 2 min 8,4 C 6,3 km/h (2 Bft)
10.06.2016 11:45 19,6 C 25,7 C 48 % 1016,0 hPa 0,0 mm 2,4 km/h (1 Bft) N-NO 22 5 min 8,3 C 0,0 km/h (0 Bft)
10.06.2016 11:50 20,0 C 25,8 C 49 % 1016,0 hPa 0,0 mm 3,9 km/h (1 Bft) W 270 5 min 9,0 C 0,0 km/h (0 Bft)
10.06.2016 11:55 20,1 C 26,3 C 49 % 1016,0 hPa 0,0 mm 3,6 km/h (1 Bft) N-NW 337 5 min 9,0 C 6,9 km/h (2 Bft)
10.06.2016 12:00 20,0 C 26,1 C 50 % 1016,0 hPa 0,0 mm 2,7 km/h (1 Bft) S-SW 202 5 min 9,3 C 0,0 km/h (0 Bft)
10.06.2016 12:05 20,3 C 26,3 C 50 % 1016,0 hPa 0,0 mm 2,7 km/h (1 Bft) SW 225 5 min 9,5 C 0,0 km/h (0 Bft)
10.06.2016 12:10 20,0 C 25,7 C 46 % 1016,0 hPa 0,0 mm 5,1 km/h (1 Bft) N-NO 22 5 min 8,0 C 13,7 km/h (3 Bft)
10.06.2016 12:16 19,8 C 25,1 C 46 % 1016,0 hPa 0,0 mm 8,3 km/h (2 Bft) NO 45 5 min 7,8 C 9,2 km/h (2 Bft)
10.06.2016 12:20 20,2 C 25,2 C 48 % 1016,0 hPa 0,0 mm 7,2 km/h (2 Bft) O-NO 67 4 min 8,8 C 5,4 km/h (1 Bft)
10.06.2016 12:25 20,0 C 25,4 C 47 % 1016,0 hPa 0,0 mm 6,6 km/h (2 Bft) W-NW 292 5 min 8,3 C 13,4 km/h (3 Bft)
10.06.2016 12:30 20,2 C 25,5 C 49 % 1015,8 hPa 0,0 mm 6,3 km/h (2 Bft) W 270 5 min 9,1 C 9,5 km/h (2 Bft)
10.06.2016 12:35 20,3 C 25,8 C 49 % 1015,8 hPa 0,0 mm 4,5 km/h (1 Bft) NW 315 5 min 9,2 C 0,0 km/h (0 Bft)
10.06.2016 12:40 20,1 C 26,2 C 47 % 1015,8 hPa 0,0 mm 3,0 km/h (1 Bft) O-SO 112 5 min 8,4 C 6,9 km/h (2 Bft)
10.06.2016 12:45 19,8 C 25,9 C 47 % 1015,8 hPa 0,0 mm 2,7 km/h (1 Bft) O-SO 112 5 min 8,2 C 5,1 km/h (1 Bft)
10.06.2016 12:50 19,9 C 25,9 C 48 % 1015,6 hPa 0,0 mm 3,9 km/h (1 Bft) NW 315 5 min 8,6 C 13,4 km/h (3 Bft)
10.06.2016 12:55 20,0 C 25,6 C 46 % 1015,6 hPa 0,0 mm 6,6 km/h (2 Bft) N 360 5 min 8,0 C 8,6 km/h (2 Bft)
10.06.2016 13:00 20,4 C 25,7 C 48 % 1015,6 hPa 0,0 mm 8,3 km/h (2 Bft) N-NW 337 5 min 9,0 C 17,0 km/h (3 Bft)
10.06.2016 13:05 20,4 C 25,5 C 47 % 1015,6 hPa 0,0 mm 7,2 km/h (2 Bft) NO 45 5 min 8,7 C 0,0 km/h (0 Bft)
10.06.2016 13:10 20,8 C 26,0 C 49 % 1015,4 hPa 0,0 mm 6,0 km/h (2 Bft) W-NW 292 5 min 9,7 C 13,4 km/h (3 Bft)
10.06.2016 13:15 20,8 C 25,9 C 48 % 1015,4 hPa 0,0 mm 5,7 km/h (1 Bft) W-NW 292 5 min 9,4 C 14,6 km/h (3 Bft)
10.06.2016 13:20 20,5 C 25,5 C 48 % 1015,4 hPa 0,0 mm 7,7 km/h (2 Bft) N-NW 337 5 min 9,1 C 7,2 km/h (2 Bft)
10.06.2016 13:25 20,6 C 25,7 C 48 % 1015,4 hPa 0,0 mm 7,2 km/h (2 Bft) N-NO 22 5 min 9,2 C 9,2 km/h (2 Bft)
10.06.2016 13:30 20,4 C 26,0 C 46 % 1015,1 hPa 0,0 mm 5,7 km/h (1 Bft) NO 45 5 min 8,4 C 6,9 km/h (2 Bft)
10.06.2016 13:35 20,3 C 25,6 C 48 % 1015,1 hPa 0,0 mm 5,4 km/h (1 Bft) NW 315 5 min 8,9 C 10,7 km/h (2 Bft)
10.06.2016 13:40 20,4 C 25,5 C 49 % 1015,1 hPa 0,0 mm 6,6 km/h (2 Bft) NW 315 5 min 9,3 C 14,0 km/h (3 Bft)
10.06.2016 13:45 20,4 C 25,4 C 49 % 1015,1 hPa 0,0 mm 8,3 km/h (2 Bft) S-SO 157 5 min 9,3 C 0,0 km/h (0 Bft)
10.06.2016 13:50 20,5 C 25,5 C 49 % 1014,8 hPa 0,0 mm 7,7 km/h (2 Bft) NW 315 5 min 9,4 C 14,6 km/h (3 Bft)
10.06.2016 13:55 20,8 C 25,4 C 49 % 1014,8 hPa 0,0 mm 8,9 km/h (2 Bft) N-NW 337 5 min 9,7 C 10,7 km/h (2 Bft)
10.06.2016 14:00 20,7 C 25,3 C 47 % 1014,8 hPa 0,0 mm 9,5 km/h (2 Bft) O 90 5 min 9,0 C 11,6 km/h (2 Bft)
10.06.2016 14:05 20,8 C 25,6 C 47 % 1014,8 hPa 0,0 mm 7,7 km/h (2 Bft) NW 315 5 min 9,1 C 9,8 km/h (2 Bft)
10.06.2016 14:10 20,5 C 25,9 C 47 % 1014,7 hPa 0,0 mm 6,0 km/h (2 Bft) S-SO 157 5 min 8,8 C 11,6 km/h (2 Bft)
10.06.2016 14:15 20,5 C 25,8 C 48 % 1014,7 hPa 0,0 mm 7,2 km/h (2 Bft) N 360 5 min 9,1 C 17,0 km/h (3 Bft)
10.06.2016 14:20 20,6 C 25,7 C 48 % 1014,7 hPa 0,0 mm 8,0 km/h (2 Bft) N-NO 22 5 min 9,2 C 8,0 km/h (2 Bft)
10.06.2016 14:25 20,5 C 26,2 C 48 % 1014,7 hPa 0,0 mm 5,4 km/h (1 Bft) NW 315 5 min 9,1 C 10,7 km/h (2 Bft)
10.06.2016 14:30 20,5 C 25,9 C 47 % 1014,2 hPa 0,0 mm 6,9 km/h (2 Bft) N-NO 22 5 min 8,8 C 7,7 km/h (2 Bft)
10.06.2016 14:35 20,8 C 25,7 C 47 % 1014,2 hPa 0,0 mm 8,9 km/h (2 Bft) NW 315 5 min 9,1 C 12,8 km/h (3 Bft)
10.06.2016 14:38 20,9 C 25,8 C 48 % 1014,2 hPa 0,0 mm 8,3 km/h (2 Bft) NW 315 3 min 9,5 C 14,6 km/h (3 Bft)
10.06.2016 14:39 20,9 C 25,8 C 48 % 1014,2 hPa 0,0 mm 8,3 km/h (2 Bft) NW 315 1 min 9,5 C 14,6 km/h (3 Bft)
10.06.2016 14:40 20,9 C 25,8 C 48 % 1014,2 hPa 0,0 mm 8,3 km/h (2 Bft) NW 315 1 min 9,5 C 14,6 km/h (3 Bft)
10.06.2016 14:45 20,9 C 26,0 C 48 % 1014,2 hPa 0,0 mm 6,6 km/h (2 Bft) N 360 5 min 9,5 C 0,0 km/h (0 Bft)
10.06.2016 14:50 20,8 C 26,9 C 47 % 1014,1 hPa 0,0 mm 3,9 km/h (1 Bft) NW 315 5 min 9,1 C 13,1 km/h (3 Bft)
10.06.2016 14:55 20,9 C 26,7 C 47 % 1014,1 hPa 0,0 mm 4,5 km/h (1 Bft) W-NW 292 5 min 9,2 C 0,0 km/h (0 Bft)
10.06.2016 15:00 21,1 C 27,4 C 47 % 1014,1 hPa 0,0 mm 5,7 km/h (1 Bft) NW 315 5 min 9,3 C 18,8 km/h (3 Bft)
10.06.2016 15:05 21,3 C 27,1 C 47 % 1014,1 hPa 0,0 mm 4,8 km/h (1 Bft) N-NW 337 5 min 9,5 C 6,6 km/h (2 Bft)
10.06.2016 15:10 21,3 C 26,5 C 46 % 1014,1 hPa 0,0 mm 8,3 km/h (2 Bft) NW 315 5 min 9,2 C 7,5 km/h (2 Bft)
10.06.2016 15:15 21,3 C 26,7 C 45 % 1014,1 hPa 0,0 mm 6,3 km/h (2 Bft) NO 45 5 min 8,9 C 10,4 km/h (2 Bft)
10.06.2016 15:20 21,0 C 26,5 C 45 % 1014,1 hPa 0,0 mm 6,6 km/h (2 Bft) N-NW 337 5 min 8,6 C 9,2 km/h (2 Bft)
10.06.2016 15:25 21,0 C 26,4 C 45 % 1014,1 hPa 0,0 mm 6,9 km/h (2 Bft) W-SW 247 5 min 8,6 C 0,0 km/h (0 Bft)
10.06.2016 15:30 21,4 C 27,2 C 45 % 1013,8 hPa 0,0 mm 3,6 km/h (1 Bft) W-NW 292 5 min 9,0 C 6,9 km/h (2 Bft)
10.06.2016 15:35 21,4 C 27,1 C 46 % 1013,8 hPa 0,0 mm 5,1 km/h (1 Bft) W 270 5 min 9,3 C 9,8 km/h (2 Bft)
10.06.2016 15:40 21,2 C 26,5 C 44 % 1013,8 hPa 0,0 mm 8,6 km/h (2 Bft) N-NO 22 5 min 8,5 C 8,3 km/h (2 Bft)
10.06.2016 15:45 21,1 C 26,4 C 44 % 1013,8 hPa 0,0 mm 8,0 km/h (2 Bft) NW 315 5 min 8,4 C 5,1 km/h (1 Bft)
10.06.2016 15:50 21,3 C 26,7 C 45 % 1013,6 hPa 0,0 mm 4,8 km/h (1 Bft) W-NW 292 5 min 8,9 C 0,0 km/h (0 Bft)
10.06.2016 15:55 21,4 C 27,3 C 45 % 1013,6 hPa 0,0 mm 2,4 km/h (1 Bft) N-NW 337 5 min 9,0 C 10,1 km/h (2 Bft)
10.06.2016 16:00 21,3 C 27,2 C 44 % 1013,6 hPa 0,0 mm 5,4 km/h (1 Bft) NO 45 5 min 8,5 C 20,0 km/h (4 Bft)
10.06.2016 16:05 20,9 C 26,7 C 43 % 1013,6 hPa 0,0 mm 8,0 km/h (2 Bft) NO 45 5 min 7,8 C 8,6 km/h (2 Bft)
10.06.2016 16:10 20,5 C 26,3 C 44 % 1013,7 hPa 0,0 mm 6,9 km/h (2 Bft) NW 315 5 min 7,8 C 5,7 km/h (1 Bft)
10.06.2016 16:15 20,4 C 26,9 C 45 % 1013,7 hPa 0,0 mm 3,6 km/h (1 Bft) NO 45 5 min 8,1 C 0,0 km/h (0 Bft)
10.06.2016 16:20 20,2 C 27,6 C 44 % 1013,7 hPa 0,0 mm 2,1 km/h (1 Bft) NW 315 5 min 7,6 C 4,2 km/h (1 Bft)
10.06.2016 16:25 20,2 C 27,5 C 45 % 1013,7 hPa 0,0 mm 5,1 km/h (1 Bft) W 270 5 min 7,9 C 10,1 km/h (2 Bft)
10.06.2016 16:30 20,3 C 26,8 C 45 % 1013,4 hPa 0,0 mm 8,3 km/h (2 Bft) N-NW 337 5 min 8,0 C 7,5 km/h (2 Bft)
10.06.2016 16:35 20,4 C 26,9 C 45 % 1013,4 hPa 0,0 mm 6,3 km/h (2 Bft) O-NO 67 5 min 8,1 C 0,0 km/h (0 Bft)
10.06.2016 16:40 20,3 C 27,2 C 46 % 1013,4 hPa 0,0 mm 4,2 km/h (1 Bft) N-NW 337 5 min 8,3 C 4,2 km/h (1 Bft)
10.06.2016 16:45 20,4 C 27,0 C 45 % 1013,4 hPa 0,0 mm 6,3 km/h (2 Bft) W 270 5 min 8,1 C 12,8 km/h (3 Bft)
10.06.2016 16:50 20,3 C 26,8 C 45 % 1013,4 hPa 0,0 mm 5,4 km/h (1 Bft) N-NO 22 5 min 8,0 C 4,5 km/h (1 Bft)
10.06.2016 16:55 20,1 C 25,7 C 46 % 1013,4 hPa 0,0 mm 3,0 km/h (1 Bft) S-SO 157 5 min 8,1 C 0,0 km/h (0 Bft)
10.06.2016 17:00 20,2 C 24,3 C 46 % 1013,4 hPa 0,0 mm 2,7 km/h (1 Bft) O-NO 67 5 min 8,2 C 4,8 km/h (1 Bft)
10.06.2016 17:05 20,2 C 23,4 C 46 % 1013,4 hPa 0,0 mm 3,3 km/h (1 Bft) O-NO 67 5 min 8,2 C 0,0 km/h (0 Bft)
10.06.2016 17:10 20,2 C 22,6 C 47 % 1013,4 hPa 0,0 mm 3,9 km/h (1 Bft) NO 45 0 min 8,5 C 0,0 km/h (0 Bft)
10.06.2016 17:15 20,2 C 22,2 C 48 % 1013,4 hPa 0,0 mm 5,1 km/h (1 Bft) N-NW 337 0 min 8,8 C 9,8 km/h (2 Bft)
10.06.2016 17:20 20,0 C 21,9 C 48 % 1013,4 hPa 0,0 mm 5,7 km/h (1 Bft) NW 315 0 min 8,7 C 5,4 km/h (1 Bft)
10.06.2016 17:25 20,1 C 21,8 C 47 % 1013,4 hPa 0,0 mm 5,7 km/h (1 Bft) NW 315 0 min 8,4 C 8,6 km/h (2 Bft)
10.06.2016 17:30 19,9 C 21,6 C 48 % 1013,2 hPa 0,0 mm 5,1 km/h (1 Bft) N-NO 22 0 min 8,6 C 6,6 km/h (2 Bft)
10.06.2016 17:35 19,9 C 21,6 C 48 % 1013,2 hPa 0,0 mm 4,8 km/h (1 Bft) N-NO 22 0 min 8,6 C 7,2 km/h (2 Bft)
10.06.2016 17:38 19,8 C 21,4 C 48 % 1013,2 hPa 0,0 mm 5,1 km/h (1 Bft) O-NO 67 0 min 8,5 C 0,0 km/h (0 Bft)
10.06.2016 17:40 19,8 C 21,4 C 48 % 1013,2 hPa 0,0 mm 5,1 km/h (1 Bft) O-NO 67 0 min 8,5 C 0,0 km/h (0 Bft)
10.06.2016 17:45 19,7 C 21,3 C 49 % 1013,2 hPa 0,0 mm 3,6 km/h (1 Bft) NW 315 0 min 8,7 C 6,3 km/h (2 Bft)
10.06.2016 17:50 19,9 C 21,1 C 49 % 1013,2 hPa 0,0 mm 5,7 km/h (1 Bft) O-SO 112 0 min 8,9 C 20,9 km/h (4 Bft)
10.06.2016 17:55 19,7 C 20,9 C 49 % 1013,2 hPa 0,0 mm 8,3 km/h (2 Bft) NO 45 0 min 8,7 C 9,2 km/h (2 Bft)
10.06.2016 18:00 19,6 C 20,6 C 49 % 1013,2 hPa 0,0 mm 7,5 km/h (2 Bft) NO 45 0 min 8,6 C 11,9 km/h (2 Bft)
10.06.2016 18:05 19,6 C 20,6 C 50 % 1013,2 hPa 0,0 mm 7,2 km/h (2 Bft) N-NW 337 0 min 8,9 C 10,1 km/h (2 Bft)
10.06.2016 18:10 19,6 C 20,5 C 49 % 1013,1 hPa 0,0 mm 8,6 km/h (2 Bft) N-NO 22 0 min 8,6 C 7,7 km/h (2 Bft)
10.06.2016 18:15 19,6 C 20,5 C 50 % 1013,1 hPa 0,0 mm 8,6 km/h (2 Bft) N-NW 337 0 min 8,9 C 7,7 km/h (2 Bft)
10.06.2016 18:20 19,8 C 20,5 C 50 % 1013,1 hPa 0,0 mm 7,5 km/h (2 Bft) W 270 0 min 9,1 C 9,8 km/h (2 Bft)
10.06.2016 18:25 19,8 C 20,5 C 50 % 1013,1 hPa 0,0 mm 7,7 km/h (2 Bft) N 360 0 min 9,1 C 6,3 km/h (2 Bft)
10.06.2016 18:30 19,6 C 20,5 C 49 % 1013,0 hPa 0,0 mm 8,0 km/h (2 Bft) N 360 0 min 8,6 C 5,7 km/h (1 Bft)
10.06.2016 18:35 19,6 C 20,9 C 49 % 1013,0 hPa 0,0 mm 6,9 km/h (2 Bft) NW 315 0 min 8,6 C 10,4 km/h (2 Bft)
10.06.2016 18:40 19,5 C 21,4 C 49 % 1013,0 hPa 0,0 mm 7,2 km/h (2 Bft) N-NW 337 0 min 8,5 C 6,0 km/h (2 Bft)
10.06.2016 18:45 19,5 C 21,6 C 50 % 1013,0 hPa 0,0 mm 6,0 km/h (2 Bft) O-NO 67 0 min 8,8 C 10,7 km/h (2 Bft)
10.06.2016 18:50 19,4 C 22,6 C 49 % 1013,1 hPa 0,0 mm 3,9 km/h (1 Bft) O-NO 67 5 min 8,4 C 6,3 km/h (2 Bft)
10.06.2016 18:55 19,4 C 23,3 C 49 % 1013,1 hPa 0,0 mm 6,0 km/h (2 Bft) O-NO 67 5 min 8,4 C 14,3 km/h (3 Bft)
10.06.2016 19:00 19,3 C 23,8 C 49 % 1013,1 hPa 0,0 mm 7,2 km/h (2 Bft) O-NO 67 5 min 8,3 C 6,3 km/h (2 Bft)
10.06.2016 19:05 19,3 C 23,9 C 49 % 1013,1 hPa 0,0 mm 6,6 km/h (2 Bft) N-NO 22 5 min 8,3 C 8,0 km/h (2 Bft)
10.06.2016 19:10 19,4 C 23,9 C 49 % 1013,1 hPa 0,0 mm 6,0 km/h (2 Bft) NO 45 5 min 8,4 C 14,0 km/h (3 Bft)
10.06.2016 19:15 19,2 C 23,8 C 50 % 1013,1 hPa 0,0 mm 6,9 km/h (2 Bft) N-NW 337 5 min 8,5 C 11,0 km/h (2 Bft)
10.06.2016 19:20 19,2 C 23,7 C 50 % 1013,1 hPa 0,0 mm 7,2 km/h (2 Bft) N-NO 22 5 min 8,5 C 9,8 km/h (2 Bft)
10.06.2016 19:25 19,2 C 23,5 C 51 % 1013,1 hPa 0,0 mm 5,1 km/h (1 Bft) O-NO 67 5 min 8,8 C 3,6 km/h (1 Bft)
10.06.2016 19:30 19,2 C 23,6 C 51 % 1013,0 hPa 0,0 mm 2,7 km/h (1 Bft) NO 45 5 min 8,8 C 0,0 km/h (0 Bft)
10.06.2016 19:35 19,2 C 23,4 C 51 % 1013,0 hPa 0,0 mm 1,5 km/h (1 Bft) O-NO 67 5 min 8,8 C 0,0 km/h (0 Bft)
10.06.2016 19:40 19,0 C 22,9 C 51 % 1013,0 hPa 0,0 mm 2,7 km/h (1 Bft) O-NO 67 5 min 8,6 C 4,2 km/h (1 Bft)
10.06.2016 19:45 19,0 C 22,4 C 51 % 1013,0 hPa 0,0 mm 4,2 km/h (1 Bft) N-NO 22 5 min 8,6 C 4,5 km/h (1 Bft)
10.06.2016 19:50 19,0 C 22,2 C 52 % 1013,2 hPa 0,0 mm 2,1 km/h (1 Bft) O-NO 67 5 min 8,9 C 0,0 km/h (0 Bft)
10.06.2016 19:55 18,8 C 22,1 C 52 % 1013,2 hPa 0,0 mm 0,6 km/h (0 Bft) NO 45 5 min 8,7 C 0,0 km/h (0 Bft)
10.06.2016 20:00 18,6 C 21,5 C 53 % 1013,2 hPa 0,0 mm 0,9 km/h (0 Bft) O-NO 67 5 min 8,8 C 0,0 km/h (0 Bft)
10.06.2016 20:05 18,5 C 21,3 C 53 % 1013,2 hPa 0,0 mm 0,3 km/h (0 Bft) O-NO 67 5 min 8,7 C 0,0 km/h (0 Bft)
10.06.2016 20:10 18,1 C 21,0 C 54 % 1013,1 hPa 0,0 mm 0,0 km/h (0 Bft) O-SO 112 5 min 8,6 C 0,0 km/h (0 Bft)
10.06.2016 20:15 17,9 C 21,0 C 54 % 1013,1 hPa 0,0 mm 0,0 km/h (0 Bft) S 180 5 min 8,5 C 0,0 km/h (0 Bft)
10.06.2016 20:20 17,8 C 20,6 C 55 % 1013,1 hPa 0,0 mm 0,0 km/h (0 Bft) S-SO 157 5 min 8,6 C 0,0 km/h (0 Bft)
10.06.2016 20:25 17,6 C 20,3 C 55 % 1013,1 hPa 0,0 mm 0,0 km/h (0 Bft) O-SO 112 5 min 8,5 C 0,0 km/h (0 Bft)
10.06.2016 20:30 17,2 C 19,7 C 56 % 1013,1 hPa 0,0 mm 0,0 km/h (0 Bft) S 180 5 min 8,3 C 0,0 km/h (0 Bft)
10.06.2016 20:35 17,2 C 19,2 C 56 % 1013,1 hPa 0,0 mm 0,0 km/h (0 Bft) S 180 0 min 8,3 C 0,0 km/h (0 Bft)
10.06.2016 20:38 17,2 C 18,5 C 56 % 1013,1 hPa 0,0 mm 0,0 km/h (0 Bft) O 90 0 min 8,3 C 0,0 km/h (0 Bft)
10.06.2016 20:41 17,2 C 18,5 C 56 % 1013,1 hPa 0,0 mm 0,0 km/h (0 Bft) O 90 0 min 8,3 C 0,0 km/h (0 Bft)
10.06.2016 20:45 16,8 C 18,2 C 57 % 1013,1 hPa 0,0 mm 0,0 km/h (0 Bft) O-SO 112 0 min 8,2 C 0,0 km/h (0 Bft)
10.06.2016 20:50 16,4 C 17,7 C 58 % 1012,9 hPa 0,0 mm 0,0 km/h (0 Bft) S-SO 157 0 min 8,1 C 0,0 km/h (0 Bft)
10.06.2016 20:55 16,4 C 17,1 C 58 % 1012,9 hPa 0,0 mm 0,0 km/h (0 Bft) S-SO 157 0 min 8,1 C 0,0 km/h (0 Bft)
10.06.2016 21:00 16,4 C 16,3 C 58 % 1012,9 hPa 0,0 mm 0,0 km/h (0 Bft) S-SO 157 0 min 8,1 C 0,0 km/h (0 Bft)
10.06.2016 21:05 15,7 C 15,8 C 61 % 1012,9 hPa 0,0 mm 0,0 km/h (0 Bft) S-SO 157 0 min 8,2 C 0,0 km/h (0 Bft)
10.06.2016 21:10 15,7 C 15,1 C 61 % 1013,0 hPa 0,0 mm 0,0 km/h (0 Bft) S-SO 157 0 min 8,2 C 0,0 km/h (0 Bft)
10.06.2016 21:15 15,7 C 14,6 C 61 % 1013,0 hPa 0,0 mm 0,0 km/h (0 Bft) SO 135 0 min 8,2 C 0,0 km/h (0 Bft)
10.06.2016 21:20 14,4 C 14,2 C 64 % 1013,0 hPa 0,0 mm 0,0 km/h (0 Bft) S-SO 157 0 min 7,7 C 0,0 km/h (0 Bft)
10.06.2016 21:25 14,4 C 14,1 C 64 % 1013,0 hPa 0,0 mm 0,0 km/h (0 Bft) S 180 0 min 7,7 C 0,0 km/h (0 Bft)
10.06.2016 21:30 14,4 C 13,8 C 64 % 1012,9 hPa 0,0 mm 0,0 km/h (0 Bft) S-SO 157 0 min 7,7 C 0,0 km/h (0 Bft)
10.06.2016 21:35 14,4 C 13,4 C 64 % 1012,9 hPa 0,0 mm 0,0 km/h (0 Bft) SO 135 0 min 7,7 C 0,0 km/h (0 Bft)
10.06.2016 21:40 14,4 C 12,9 C 64 % 1012,9 hPa 0,0 mm 0,0 km/h (0 Bft) SO 135 0 min 7,7 C 0,0 km/h (0 Bft)
10.06.2016 21:45 14,4 C 12,7 C 64 % 1012,9 hPa 0,0 mm 0,0 km/h (0 Bft) O-SO 112 0 min 7,7 C 0,0 km/h (0 Bft)
10.06.2016 21:50 14,4 C 12,4 C 64 % 1013,1 hPa 0,0 mm 0,0 km/h (0 Bft) NO 45 0 min 7,7 C 0,0 km/h (0 Bft)
10.06.2016 21:55 14,4 C 12,2 C 64 % 1013,1 hPa 0,0 mm 0,0 km/h (0 Bft) SO 135 0 min 7,7 C 0,0 km/h (0 Bft)
10.06.2016 22:00 14,4 C 12,0 C 64 % 1013,1 hPa 0,0 mm 0,0 km/h (0 Bft) O-SO 112 0 min 7,7 C 0,0 km/h (0 Bft)
10.06.2016 22:05 14,4 C 11,9 C 64 % 1013,1 hPa 0,0 mm 0,0 km/h (0 Bft) SO 135 0 min 7,7 C 0,0 km/h (0 Bft)
10.06.2016 22:10 14,4 C 11,7 C 64 % 1013,0 hPa 0,0 mm 0,0 km/h (0 Bft) N-NO 22 0 min 7,7 C 0,0 km/h (0 Bft)
10.06.2016 22:15 14,4 C 11,5 C 64 % 1013,0 hPa 0,0 mm 0,0 km/h (0 Bft) N-NO 22 0 min 7,7 C 0,0 km/h (0 Bft)
10.06.2016 22:20 14,4 C 11,2 C 64 % 1013,0 hPa 0,0 mm 0,0 km/h (0 Bft) N-NO 22 0 min 7,7 C 0,0 km/h (0 Bft)
10.06.2016 22:25 14,4 C 11,1 C 64 % 1013,0 hPa 0,0 mm 0,0 km/h (0 Bft) SO 135 0 min 7,7 C 0,0 km/h (0 Bft)
10.06.2016 22:30 14,4 C 11,0 C 64 % 1013,0 hPa 0,0 mm 0,0 km/h (0 Bft) N 360 0 min 7,7 C 0,0 km/h (0 Bft)
10.06.2016 22:35 14,4 C 10,8 C 64 % 1013,0 hPa 0,0 mm 0,0 km/h (0 Bft) NW 315 0 min 7,7 C 0,0 km/h (0 Bft)
10.06.2016 22:40 14,4 C 10,7 C 64 % 1013,0 hPa 0,0 mm 0,0 km/h (0 Bft) N-NW 337 0 min 7,7 C 0,0 km/h (0 Bft)
10.06.2016 22:45 14,4 C 10,6 C 64 % 1013,0 hPa 0,0 mm 0,0 km/h (0 Bft) NO 45 0 min 7,7 C 0,0 km/h (0 Bft)
10.06.2016 22:50 14,4 C 10,6 C 64 % 1012,9 hPa 0,0 mm 0,0 km/h (0 Bft) W-SW 247 0 min 7,7 C 0,0 km/h (0 Bft)
10.06.2016 22:55 14,4 C 10,7 C 64 % 1012,9 hPa 0,0 mm 0,0 km/h (0 Bft) O-SO 112 0 min 7,7 C 0,0 km/h (0 Bft)
10.06.2016 23:00 14,4 C 10,5 C 64 % 1012,9 hPa 0,0 mm 0,0 km/h (0 Bft) NW 315 0 min 7,7 C 0,0 km/h (0 Bft)
10.06.2016 23:05 14,4 C 10,4 C 64 % 1012,9 hPa 0,0 mm 0,0 km/h (0 Bft) S 180 0 min 7,7 C 0,0 km/h (0 Bft)
10.06.2016 23:10 14,4 C 10,5 C 64 % 1012,9 hPa 0,0 mm 0,0 km/h (0 Bft) N-NO 22 0 min 7,7 C 0,0 km/h (0 Bft)
10.06.2016 23:15 14,4 C 10,5 C 64 % 1012,9 hPa 0,0 mm 0,0 km/h (0 Bft) N-NO 22 0 min 7,7 C 0,0 km/h (0 Bft)
10.06.2016 23:20 14,4 C 10,3 C 64 % 1012,9 hPa 0,0 mm 0,0 km/h (0 Bft) N-NO 22 0 min 7,7 C 0,0 km/h (0 Bft)
10.06.2016 23:25 14,4 C 10,3 C 64 % 1012,9 hPa 0,0 mm 0,0 km/h (0 Bft) N-NW 337 0 min 7,7 C 0,0 km/h (0 Bft)
10.06.2016 23:30 14,4 C 10,2 C 64 % 1012,8 hPa 0,0 mm 0,0 km/h (0 Bft) NW 315 0 min 7,7 C 0,0 km/h (0 Bft)
10.06.2016 23:35 14,4 C 10,1 C 64 % 1012,8 hPa 0,0 mm 0,0 km/h (0 Bft) N-NO 22 0 min 7,7 C 0,0 km/h (0 Bft)
10.06.2016 23:40 14,4 C 10,0 C 64 % 1012,8 hPa 0,0 mm 0,0 km/h (0 Bft) N-NO 22 0 min 7,7 C 0,0 km/h (0 Bft)
10.06.2016 23:42 0,0 C 10,0 C 0 % 1012,8 hPa 0,0 mm 0,0 km/h (0 Bft) N-NO 22 0 min -60,0 C 0,0 km/h (0 Bft)
10.06.2016 23:45 0,0 C 10,0 C 0 % 1012,8 hPa 0,0 mm 0,0 km/h (0 Bft) NO 45 0 min -60,0 C 0,0 km/h (0 Bft)
10.06.2016 23:50 0,0 C 10,0 C 0 % 1012,8 hPa 0,0 mm 0,0 km/h (0 Bft) N-NO 22 0 min -60,0 C 0,0 km/h (0 Bft)
10.06.2016 23:55 0,0 C 10,0 C 0 % 1012,8 hPa 0,0 mm 0,0 km/h (0 Bft) N-NO 22 0 min -60,0 C 0,0 km/h (0 Bft)
_ Min-Zeit 23:55 05:20 23:55 23:55 - 23:55 - - - 23:55 23:55
Minimum _ 0,0 C 6,4 C 0 % 1012,8 hPa - 0,0 km/h (0 Bft) - - - -60,0 C 0,0 km/h (0 Bft)
_ Max-Zeit 15:55 16:20 07:00 00:05 08:50 14:00 - - 20:30 09:15 10:05
Maximum _ 21,4 C 27,6 C 88 % 1016,8 hPa 0,7 mm 9,5 km/h
O (2 Bft)
- - 5 min 11,9 C 21,8 km/h
W-NW (4 Bft)
Durchschnitt _ 15,1 C 17,9 C 65 % 1014,5 hPa #0,7 mm 2,7 km/h (1 Bft) NW - #12:24 h 7,5 C 3,7 km/h (1 Bft)